DateTimeUTC,F1_A11,F1_S11,BsB_S11,BsG_S11,BsR_S11,BbsB_S11,BbsG_S11,BbsR_S11,BaB_A11,BaG_A11,BaR_A11,Tu_S11,T_S11,Uu_S11,U_S11,P_S11,T1_A11
2021-02-10T12:00:00Z,00000200,21000000,,,,,,,-000.24,-000.19,-000.15,16.0,23.4,,00.0,0641.9,31.0
2021-02-10T12:01:00Z,00000200,21000000,,,,,,,0000.23,-000.26,-000.05,16.0,23.4,,00.0,0641.9,31.0
2021-02-10T12:02:00Z,00000200,21000000,,,,,,,0000.26,0000.37,-000.00,15.9,23.4,,00.0,0641.9,31.0
2021-02-10T12:03:00Z,00000200,61000000,,,,,,,-000.12,-000.29,-000.05,15.9,23.4,,00.0,0641.9,30.9
2021-02-10T12:04:00Z,00000200,41000000,0000.50,0000.45,0000.08,0000.31,0000.03,-000.29,-000.00,-000.19,0000.07,16.0,23.1,,00.0,0642.7,30.9
2021-02-10T12:05:00Z,00000200,01000000,0000.94,0000.06,-000.14,0000.33,-000.26,-000.07,0000.36,0000.17,0000.06,16.0,23.1,,00.0,0642.7,30.9
2021-02-10T12:06:00Z,00000200,01000000,0000.41,0000.10,-000.14,0000.40,-000.22,0000.35,-000.05,0000.44,0000.24,16.0,23.0,,00.0,0642.7,30.9
2021-02-10T12:07:00Z,00000200,01000000,0000.40,0000.27,0000.03,-000.33,-000.06,-000.13,0000.56,0000.38,0000.03,16.1,23.0,,00.0,0642.6,30.9
2021-02-10T12:08:00Z,00000200,01000000,0000.52,0000.04,0000.19,-000.32,-000.05,0000.06,0000.16,0000.15,0000.43,16.1,23.1,,00.0,0642.6,30.9
2021-02-10T12:09:00Z,00000200,01000000,0000.17,0000.12,-000.06,0000.38,-000.20,0000.07,0000.18,0000.00,0000.19,16.2,23.1,,00.0,0642.6,31.0
2021-02-10T12:10:00Z,00000200,01000000,0000.52,-000.12,0000.04,0000.26,-000.38,-000.19,0000.19,0000.42,-000.08,16.3,23.1,,00.0,0642.6,31.0
2021-02-10T12:11:00Z,00000200,01000000,0000.73,0000.11,0000.17,-000.51,-000.12,-000.18,0000.04,0000.22,0000.28,16.4,23.2,,00.0,0642.6,31.0
2021-02-10T12:12:00Z,00000200,01000000,-000.23,0000.25,-000.16,0000.07,-000.19,-000.12,-000.14,-000.19,-000.15,16.4,23.2,,00.0,0642.6,31.0
2021-02-10T12:13:00Z,00000200,01000000,-000.07,0000.22,-000.16,0000.19,-000.29,0000.10,0000.24,-000.11,0000.11,16.4,23.2,,00.0,0642.5,31.0
2021-02-10T12:14:00Z,00000200,01000000,0000.25,0000.26,-000.28,-000.22,-000.18,-000.22,0000.04,0000.05,-000.10,16.4,23.2,,00.0,0642.5,31.0
2021-02-10T12:15:00Z,00000200,01000000,0000.49,0000.25,0000.20,0000.09,-000.32,0000.09,0000.16,0000.29,0000.05,16.4,23.2,,00.0,0642.5,31.0
2021-02-10T12:16:00Z,00000200,01000000,0000.21,0000.21,0000.13,0000.33,-000.07,0000.07,-000.13,0000.06,0000.34,16.3,23.2,,00.0,0642.5,31.0
2021-02-10T12:17:00Z,00000200,01000000,0001.21,0000.37,-000.23,0000.08,-000.03,-000.19,0000.14,0000.15,-000.44,16.3,23.1,,00.0,0642.5,31.0
2021-02-10T12:18:00Z,00000200,01000000,0000.16,0000.38,-000.19,0000.34,-000.06,0000.05,0000.20,0000.03,0000.33,16.2,23.1,,00.0,0642.5,31.0
2021-02-10T12:19:00Z,00000200,01000000,0000.90,0000.07,-000.03,0000.86,0000.02,0000.17,-000.03,-000.14,-000.03,16.2,23.1,,00.0,0642.5,30.9
2021-02-10T12:20:00Z,00000200,01000000,0000.15,-000.13,-000.25,-000.01,-000.13,-000.16,0000.21,0000.07,-000.04,16.2,23.1,,00.0,0642.5,30.9
2021-02-10T12:21:00Z,00000200,01000000,0000.64,-000.20,0000.12,-000.27,0000.12,-000.11,0000.09,0000.11,0000.23,16.2,23.0,,00.0,0642.5,30.9
2021-02-10T12:22:00Z,00000200,01000000,0000.10,0000.10,-000.11,-000.31,0000.01,0000.06,0000.42,0000.56,0000.36,16.2,23.1,,00.0,0642.5,30.9
2021-02-10T12:23:00Z,00000200,01000000,-000.02,0000.24,0000.02,0000.41,-000.04,-000.23,0000.48,0000.07,-000.09,16.2,23.1,,00.0,0642.5,30.9
2021-02-10T12:24:00Z,00000200,01000000,-000.15,-000.06,-000.16,0000.21,0000.07,-000.12,-000.09,-000.03,0000.43,16.3,23.1,,00.0,0642.4,31.0
2021-02-10T12:25:00Z,00000200,01000000,0000.54,0000.19,0000.06,0000.14,-000.04,-000.08,-000.24,-000.08,-000.50,16.4,23.1,,00.0,0642.4,31.0
2021-02-10T12:26:00Z,00000200,01000000,0000.68,-000.01,0000.14,-000.02,-000.19,0000.02,-000.22,0000.14,0000.15,16.4,23.1,,00.0,0642.4,31.0
2021-02-10T12:27:00Z,00000200,01000000,0000.01,-000.14,-000.11,0000.09,-000.33,-000.36,-000.08,-000.31,0000.07,16.4,23.2,,00.0,0642.4,31.0
2021-02-10T12:28:00Z,00000200,01000000,-000.62,0000.06,-000.25,0000.53,0000.06,-000.19,0000.05,0000.36,-000.10,16.3,23.2,,00.0,0642.4,31.0
2021-02-10T12:29:00Z,00000200,01000000,0000.52,0000.37,0000.12,-000.12,0000.07,0000.06,0000.21,-000.57,-000.30,16.3,23.1,,00.0,0642.3,30.9
2021-02-10T12:30:00Z,00000200,01000000,0000.18,0000.06,0000.03,0000.25,-000.13,0000.12,-000.08,0000.50,-000.10,16.2,23.1,,00.0,0642.3,30.9
2021-02-10T12:31:00Z,00000200,01000000,0000.49,0000.15,0000.06,0000.73,-000.18,-000.23,-000.20,-000.38,0000.13,16.2,23.1,,00.0,0642.3,30.9
2021-02-10T12:32:00Z,00000200,01000000,0001.03,0000.09,-000.15,-000.27,0000.07,-000.15,0000.06,-000.07,-000.08,16.2,23.1,,00.0,0642.3,30.9
2021-02-10T12:33:00Z,00000200,01000000,0000.43,-000.03,0000.02,0000.31,0000.11,0000.01,-000.10,-000.26,-000.11,16.1,23.1,,00.0,0642.3,30.9
2021-02-10T12:34:00Z,00000200,01000000,-000.04,-000.08,-000.05,0000.52,-000.10,-000.20,-000.08,0000.28,-000.08,16.1,23.0,,00.0,0642.2,30.9
2021-02-10T12:35:00Z,00000200,01000000,0000.30,0000.05,-000.01,0000.77,-000.17,0000.17,-000.04,-000.03,0000.38,16.1,23.0,,00.0,0642.2,30.9
2021-02-10T12:36:00Z,00000200,01000000,0000.24,0000.02,0000.00,-000.07,-000.03,-000.20,0000.01,-000.00,-000.06,16.0,23.0,,00.0,0642.1,30.9
2021-02-10T12:37:00Z,00000200,01000000,-000.07,0000.01,-000.02,-000.34,-000.03,-000.07,0000.27,0000.10,0000.05,16.1,23.0,,00.0,0642.2,30.9
2021-02-10T12:38:00Z,00000200,01000000,0000.65,-000.05,0000.01,-000.48,-000.03,-000.02,-000.03,0000.18,0000.12,16.1,23.0,,00.0,0642.2,30.9
2021-02-10T12:39:00Z,00000200,01000000,0000.27,0000.36,-000.25,-000.28,0000.08,-000.15,0000.02,-000.01,0000.29,16.2,23.0,,00.0,0642.2,31.0
2021-02-10T12:40:00Z,00000200,01000000,-000.02,0000.23,-000.26,-000.07,-000.18,-000.25,0000.07,0000.26,-000.12,16.3,23.1,,00.0,0642.2,31.0
2021-02-10T12:41:00Z,00000200,01000000,0000.10,-000.05,-000.01,0000.55,-000.12,-000.22,-000.09,-000.29,-000.08,16.4,23.1,,00.0,0642.2,31.0
2021-02-10T12:42:00Z,00000200,01000000,0000.57,-000.09,-000.09,-000.10,0000.05,-000.11,-000.21,-000.34,-000.28,16.4,23.2,,00.0,0642.2,31.0
2021-02-10T12:43:00Z,00000200,01000000,0000.39,0000.11,-000.05,-000.17,-000.21,-000.14,0000.00,0000.01,-000.12,16.5,23.1,,00.0,0642.2,31.0
2021-02-10T12:44:00Z,00000200,01000000,-000.32,0000.13,-000.30,0000.34,0000.03,-000.19,-000.03,0000.19,0000.05,16.4,23.2,,00.0,0642.2,31.0
2021-02-10T12:45:00Z,00000200,01000000,-000.06,0000.14,-000.21,0000.38,-000.02,-000.38,-000.23,-000.21,0000.03,16.4,23.1,,00.0,0642.2,31.0
2021-02-10T12:46:00Z,00000200,01000000,-000.21,-000.04,-000.06,0000.89,-000.22,0000.01,0000.22,0000.06,0000.04,16.3,23.1,,00.0,0642.2,31.0
2021-02-10T12:47:00Z,00000200,01000000,-000.66,0000.08,-000.15,0000.27,-000.12,-000.23,-000.20,0000.10,0000.02,16.3,23.1,,00.0,0642.2,31.0
2021-02-10T12:48:00Z,00000200,01000000,-000.43,0000.12,0000.13,0000.40,0000.13,0000.02,0000.40,-000.22,-000.23,16.3,23.1,,00.0,0642.2,30.9
2021-02-10T12:49:00Z,00000200,01000000,-000.65,0000.22,0000.06,0000.58,-000.13,-000.19,-000.34,-000.03,0000.20,16.2,23.1,,00.0,0642.2,30.9
2021-02-10T12:50:00Z,00000200,01000000,-000.20,0000.10,-000.04,0000.24,-000.05,-000.31,0000.60,0000.52,0000.17,16.2,23.0,,00.0,0642.2,30.9
2021-02-10T12:51:00Z,00000200,01000000,-000.30,-000.01,0000.11,-000.26,-000.29,-000.13,0000.14,-000.10,-000.10,16.2,23.0,,00.0,0642.2,30.9
2021-02-10T12:52:00Z,00000200,01000000,0000.42,-000.03,0000.13,0000.19,0000.14,-000.12,-000.13,0000.10,0000.30,16.2,23.0,,00.0,0642.1,30.9
2021-02-10T12:53:00Z,00000200,01000000,0001.02,0000.23,-000.11,0000.11,-000.08,-000.24,0000.32,0000.19,-000.02,16.2,23.1,,00.0,0642.1,30.9
2021-02-10T12:54:00Z,00000200,01000000,-000.28,0000.40,-000.11,0000.30,-000.08,-000.21,0000.04,0000.57,0000.11,16.3,23.1,,00.0,0642.1,31.0
2021-02-10T12:55:00Z,00000200,01000000,0000.08,0000.14,0000.04,-000.10,0000.07,-000.19,0000.27,-000.51,-000.20,16.3,23.1,,00.0,0642.0,31.0
2021-02-10T12:56:00Z,00000200,01000000,0000.31,0000.27,0000.13,0000.09,-000.20,-000.12,-000.40,0000.38,0000.20,16.4,23.1,,00.0,0642.0,31.0
2021-02-10T12:57:00Z,00000200,41000000,,,,,,,-000.00,-000.32,-000.05,16.4,23.1,,00.0,0642.1,31.0
2021-02-10T12:58:00Z,00000200,61000000,,,,,,,-000.02,0000.09,-000.10,16.0,23.2,,00.0,0641.1,31.0
2021-02-10T12:59:00Z,00000200,21000000,,,,,,,-000.30,-000.26,-000.09,15.9,23.3,,00.0,0641.1,30.9
